Location: Unspecified
(34.1750°S, 150.8048°E)
Time: 00:22:23
(UTC+10:00)

ISS - Visible Passes

Search period start: 20 June 2018 00:00
Search period end: 30 June 2018 00:00
Orbit: 402 x 406 km, 51.6° (Epoch: 19 June)

Date Brightness Start Highest point End Pass type
(mag) Time Alt. Az. Time Alt. Az. Time Alt. Az.
22 Jun -0.8 19:09:07 10° NNW 19:09:26 12° NNW 19:09:26 12° NNW visible
23 Jun -2.1 18:17:31 10° N 18:19:44 21° NE 18:19:44 21° NE visible
24 Jun -1.3 17:27:42 10° NE 17:27:57 10° NE 17:28:12 10° ENE visible
24 Jun -1.9 19:00:45 10° WNW 19:02:38 30° WNW 19:02:38 30° WNW visible
25 Jun -3.8 18:08:25 10° NW 18:11:40 63° NE 18:12:46 36° ESE visible
26 Jun -1.8 18:53:06 10° W 18:55:30 23° SW 18:55:30 23° SW visible
27 Jun -2.9 18:00:11 10° WNW 18:03:22 44° SW 18:05:28 19° SSE visible
28 Jun -1.1 18:46:18 10° SW 18:47:49 12° SSW 18:48:01 12° SSW visible
29 Jun -1.7 17:52:38 10° W 17:55:10 20° SSW 17:57:43 10° SSE visible
